Weather in Yekaterinburg

Russia / Sverdlovsk Oblast     56°50′16″N   60°35′50″E
temp.,
°C
wind,
m/s
gust,
m/s
humid.,
%
clouds,
%
prec.,
mm/h
press.,
hPa
HPBL,
m
5 december, sun
sun523:00+2sw71879100 0.0 10091086
02:00+2sw61588100 0.0 10091074
05:00+1sw51397100 0.1 1009957
08:00+1sw41194100 0.3 1009862
11:000w4981100 0.6 1010920
14:00−1w3778100 0.0 1011940
17:00−2w3880100 0.1 1013700
20:00−4w378693 0.1 1015408
6 december, mon
mon623:00−4w3781100 0.1 1016708
02:00−6wsw3985100 0.0 1016479
05:00−5w3885100 0.0 1017818
08:00−8wnw4978100 0.0 1018589
11:00−10nw467033 0.0 1020524
14:00−10nw476983 0.0 1021616
17:00−12wnw38785 0.0 1023527
20:00−13wnw498322 0.0 1025459
7 december, tue
tue723:00−14wnw410835 0.0 1026417
02:00−14w411825 0.0 1028407
05:00−15wnw511835 0.0 1029395
08:00−15wnw412855 0.0 1031358
11:00−14w513815 0.0 1032381
14:00−12w512722 0.0 1032438
17:00−13w513773 0.0 1034425
20:00−13wnw411825 0.0 1035320
8 december, wed
wed823:00−13w410855 0.0 1037256
02:00−13w398496 0.0 1037194
05:00−13w2685100 0.0 1038130
08:00−11sw1274100 0.0 103852
11:00−9sse1463100 0.0 1038124
14:00−7sse2653100 0.0 1036225
17:00−7se2660100 0.1 1035157
20:00−6s21064100 0.3 1034257
9 december, thu
thu923:00−4ssw31396100 1.3 1032556
02:00−1wsw41484100 0.4 1031634
05:00−2wsw51485100 0.4 1031507
08:00−2wsw41385100 0.0 1032442
11:00−1wsw41282100 0.0 1032412
14:000wsw31177100 0.0 1032408
17:00−3sw2689100 0.0 1033108
20:00−4sw2390100 0.0 103354